loading
|
Showing default

EXPLORER 16, 506

Orbit data source: Space-Track

EXPLORER 16, 506 is a payload satellite owned by NASA LaRC (US) in LEO that was launched on Sun, 16 Dec 1962 UTC via an SCOUT X-3 launch vehicle from the Wallops Island (WLPIS). Payloads include a variety of satellites, spacecraft, and rockets equipped with specific instruments for various scientific and technological missions. These include communications satellites like Starlink; space stations such as the ISS; scientific satellites like the Hubble; Earth observation satellites from companies like Planet Labs, Umbra, and HawkEye 360; GPS; miniature CubeSats for education and research; and military/defense satellites.

Loading next visibility...
Loading greatness...
EXPLORER 16 details
Identifier
506, 1962-070A
Orbit
LEO
Last TLE update1 day ago
Origin
Flag of USNASA LaRC (US)
ManufacturerNASA LaRC
Mission statusUnknown
MissionCivil Science
Bus & MotorS-55, Unknown motor
Mass100 kg wet, 76 kg dry
Launch date (UTC)
1962-12-16 (62 years ago)
Launch vehicle
SCOUT X-3
Launch site
Wallops Island (WLPIS)
Object type
Payload
Rocket body
Debris
Radar Cross Section0.65 m², Medium (>0.1 m² and < 1m²)

Expand to show TLE details & history

TLE from 1 day ago
0 EXPLORER 16
1 00506U 62070A   24250.52090346  .00000086  00000-0  15031-3 0  9995
2 00506  52.0050   4.4867 0276738 341.0020  18.0738 13.85511767118828
Epoch: 2024-09-06T12:30Z
Definitive object data (Epoch: 2024-09-06T12:30:06.058Z)
Latitude-0.00008°
Longitude-169.13085°
Altitude753.053 km
Speed7.576 km/s
True Right ascension00h 17m 56s
True Declination0° 00' 00"
Sunlit
Object was in full shadow at TLE epoch
Predictive object data (real-time)
Latitude44.31922°
Longitude-124.46578°
Altitude900.618 km
Speed7.431 km/s
Apparent Right ascension00h 54m 42s
Apparent Declination6° 58' 57"
Sunlit
Object is in daylight
Predictive observer data (real-time)
Local Sidereal Time10:22:04
Azimuth314.089° NW
Elevation-31.374°
Doppler factor1
Orbital elements
Apogee1,147.473 km
Perigee742.165 km
Semi-major axis7,322.956 km
Eccentricity0.0276738
Inclination52.005°
RAAN4.4867°
Arg. of periapsis341.002°
True anomaly19.09099°
Mean anomaly18.0738°
Eccentric anomaly18.57899°
Mean motion3.46349 °/min
BSTAR0.00015031
Period103.94 mins
No data available
Other satellites on launch #70 in the year 1962 (1962-12-16 UTC)

EXPLORER 16 Visibility forecast

Observer location: 39.9160978°, -105.1181434

EXPLORER 16 is not visible in the next 10 days
Span
Click to sort rows by Start time (UTC) header in descending order
Start Az.
Max El. time (UTC)
Max El. Az.
Max El.
End time (UTC)
End Az.